Regional Weather Roundup
Issued by NWS

Home | Current Version | Previous Version | Text Only | Print | Product List | Glossary Off
Versions: 1 2 3 4 5 6 7 8 9 10 11 12 13 14 15 16 17 18 19 20 21 22 23 24 25 26 27 28 29 30 31 32 33 34 35 36 37 38 39 40 41 42 43 44 45 46 47 48 49 50

442
ASUS43 KDMX 121908
RWRIA

WEATHER ROUNDUP FOR IOWA
NATIONAL WEATHER SERVICE DES MOINES IA
100 PM CST FRI FEB 12 2016

NOTE: "FAIR" INDICATES FEW OR NO CLOUDS BELOW 12,000 FEET WITH NO
SIGNIFICANT WEATHER AND/OR OBSTRUCTIONS TO VISIBILITY.

* - THESE STATIONS ARE NOT NWS STATIONS...THUS NOT UNDER NWS
QUALITY CONTROL.  THEY ALSO DO NOT REPORT WEATHER SUCH
AS PRECIPITATION OR FOG.

IAZ001>003-012>014-020>022-031>034-043>046-122000-
   NORTHWEST IOWA

CITY           SKY/WX    TMP DP  RH WIND       PRES   REMARKS
CARROLL *      SUNNY     14   7  73 N21       30.49S WCI  -4
CHEROKEE *     SUNNY     14   0  52 N16G24    30.52S WCI  -2
DENISON *      MOSUNNY   16   7  67 N18       30.50R WCI  -1
LE MARS *      SUNNY     14   5  67 N15       30.56S WCI  -1
ORANGE CITY *  SUNNY     12   3  67 N12       30.53R WCI  -2
SHELDON *      SUNNY     10   3  72 N21G26    30.51R WCI  -9
SIOUX CITY     MOSUNNY   19   9  65 N16       30.56R WCI   4
SPENCER        SUNNY     11   0  61 N26       30.49S WCI -10
STORM LAKE *   SUNNY     12   1  62 N22G29    30.49R WCI  -7
$$

IAZ055>058-069>071-079>083-090>094-122000-
   SOUTHWEST IOWA

CITY           SKY/WX    TMP DP  RH WIND       PRES   REMARKS
ATLANTIC *     CLOUDY    18   9  68 N18       30.51R WCI   2
AUDUBON *      SUNNY     16   7  67 N18G26    30.49S WCI  -1
CLARINDA *     MOSUNNY   27  12  54 NW21G28   30.51S WCI  13
COUNCIL BLFS * SUNNY     23  12  63 N17       30.50S WCI   9
CRESTON *      PTSUNNY   19   9  63 N18G26    30.46R WCI   4
HARLAN  *      PTSUNNY   18  10  73 N20       30.53F WCI   1
LAMONI         SUNNY     25   9  50 N17G24    30.43R WCI  12
RED OAK *      PTSUNNY   23  10  58 N16G25    30.51S WCI  10
SHENANDOAH *   SUNNY     27  12  54 N18G26    30.52R WCI  13
$$

IAZ047>049-059>061-072>074-084-122000-
   CENTRAL IOWA

CITY           SKY/WX    TMP DP  RH WIND       PRES   REMARKS
AMES           SUNNY     16   5  62 NW20      30.45S WCI  -1
ANKENY *       SUNNY     18   3  53 N21G29    30.46S WCI   1
BOONE *        SUNNY     16   3  57 N17G25    30.44S WCI   0
CHARITON *     FLURRIES  21   9  58 NW17      30.43R WCI   7
DES MOINES     MOSUNNY   20   7  57 NW20      30.46R WCI   4
GRINNELL*      SUNNY     18   9  68 NW23      30.40F WCI   0
KNOXVILLE *    SUNNY     19   5  53 N20G30    30.41S WCI   4
MARSHALLTOWN   SUNNY     16   6  65 NW22      30.41S WCI  -2
NEWTON *       FLURRIES  16   7  67 N24G32    30.41F WCI  -3
PELLA *        SUNNY     19   7  58 NW21G29   30.43S WCI   3
$$

IAZ004>006-015-016-023>025-035-036-122000-
   NORTH CENTRAL IOWA

CITY           SKY/WX    TMP DP  RH WIND       PRES   REMARKS
ALGONA *       SUNNY     12   3  67 N28       30.44F WCI  -9
CLARION *      MOSUNNY   12   1  62 NW25G35   30.43S WCI  -8
ESTHERVILLE    SUNNY      9   0  67 NW23G32   30.47R WCI -11
FORT DODGE *   SUNNY     14   1  57 NW12G21   30.47S WCI   0
MASON CITY     SUNNY     12   1  61 NW25      30.41S WCI  -8
FOREST CITY *  SUNNY     12   1  62 NW18G29   30.41S WCI  -5
WEBSTER CITY * SUNNY     14   5  67 NW22G30   30.43S WCI  -4
IOWA FALLS *     N/A     14   5  67 NW28      30.42S HAZE    WCI  -6
$$

IAZ007>011-017>019-026>030-037>042-050>054-066-122000-
   NORTHEAST IOWA

CITY           SKY/WX    TMP DP  RH WIND       PRES   REMARKS
CEDAR RAPIDS   SUNNY     20   7  57 NW23G35   30.34R WCI   3
CHARLES CITY * SUNNY     14   0  52 NW25      30.37S WCI  -5
CLINTON *      MOSUNNY   24   9  52 NW24      30.27S WCI   8
DECORAH *      SUNNY     14  -2  48 NW22G32   30.30S WCI  -4
DUBUQUE        SUNNY     17   5  59 NW24      30.26S WCI  -1
MONTICELLO *   SUNNY     18   5  57 NW24G32   30.31S WCI   0
OELWEIN *      SUNNY     12   3  67 NW26G33   30.35S HAZE    WCI  -8
WATERLOO       SUNNY     15   2  56 NW23      30.38R WCI  -3
$$

IAZ064-065-067-068-078-122000-
   EAST CENTRAL IOWA

CITY           SKY/WX    TMP DP  RH WIND       PRES   REMARKS
DAVENPORT      SUNNY     23   6  48 NW26G35   30.29S WCI   6
IOWA CITY      MOSUNNY   22   7  52 NW22G31   30.37S WCI   6
MT. PLEASANT * MOSUNNY   27  14  59 NW16G23   30.35S WCI  14
MUSCATINE *    SUNNY     27   7  43 NW22G29   30.34F WCI  12
QUAD CITIES    SUNNY     25   7  46 NW20G36   30.29S WCI  11
$$

IAZ062-063-075>077-085>089-095>099-122000-
   SOUTHEAST IOWA

CITY           SKY/WX    TMP DP  RH WIND       PRES   REMARKS
BURLINGTON     MOSUNNY   24  13  62 NW20G28   30.33R WCI  10
FAIRFIELD *    FLURRIES  23  10  58 NW20G30   30.37S WCI   8
FORT MADISON * MOSUNNY   25  16  68 NW18      30.34S WCI  11
KEOKUK *       CLOUDY    25  14  63 NW14G23   30.35S WCI  13
OSKALOOSA *      N/A     21  12  68 NW21      30.40S WCI   6
CENTERVILLE *  SUNNY     23  12  63 NW16G25   30.41S WCI  10
OTTUMWA        SUNNY     21  11  65 NW22G31   30.40S WCI   5
WASHINGTON *   SUNNY     23  10  58 NW24G33   30.37S WCI   7
$$

ABBREVIATIONS USED IN REMARKS
   TC - TEMPERATURES IN CELSIUS
  WCI - WIND CHILL INDEX
   HX - HEAT INDEX
  VSB - VISIBILITY
$$





USA.gov is the U.S. government's official web portal to all federal, state and local government web resources and services.